Regional Weather Roundup
Issued by NWS

Home | Current Version | Previous Version | Text Only | Print | Product List | Glossary On
Versions: 1 2 3 4 5 6 7 8 9 10 11 12 13 14 15 16 17 18 19 20 21 22 23 24 25 26 27 28 29 30 31 32 33 34 35 36 37 38 39 40 41 42 43 44 45 46 47 48 49 50
408
ASUS43 KTOP 190159
RWRKS

WEATHER ROUNDUP FOR KANSAS
NATIONAL WEATHER SERVICE GOODLAND KS
800 PM CST WED JAN 18 2017

NOTE:  "FAIR" INDICATES FEW OR NO CLOUDS BELOW 12,000 FEET WITH NO
SIGNIFICANT WEATHER AND/OR OBSTRUCTIONS TO VISIBILITY.

KSZ001>006-013>018-027>032-041>047-190300-
NORTHWEST KANSAS

CITY           SKY/WX    TMP DP  RH WIND       PRES   REMARKS
GOODLAND       CLEAR     38  32  79 S9        29.77F
HAYS           CLEAR     41  39  93 SE9       29.84F
HILL CITY      CLOUDY    43  40  89 S6        29.82F
RUSSELL        CLEAR     44  39  82 S14       29.84F
$$

KSZ061>065-074>080-084>089-190300-
SOUTHWEST KANSAS

CITY           SKY/WX    TMP DP  RH WIND       PRES   REMARKS
DODGE CITY     CLEAR     45  41  86 S15       29.84S
ELKHART          N/A     43  30  60 S7          N/A
GARDEN CITY    CLEAR     39  36  89 E9        29.80F
GREAT BEND     CLEAR     41  38  89 S10       29.87F
LIBERAL        CLEAR     45  36  70 S8        29.80F
$$

KSZ066>073-081>083-090>101-190300-
SOUTHEAST KANSAS

CITY           SKY/WX    TMP DP  RH WIND       PRES   REMARKS
CHANUTE        CLOUDY    46  41  82 SE7       29.97F
COFFEYVILLE    CLOUDY    48  43  82 SE9       29.97F
HUTCHINSON     CLEAR     43  39  86 SE9       29.91F
MEDICINE LODGE   N/A     45  41  86 SE8       29.90F
NEWTON         CLEAR     43  37  79 S12       29.93S
PARSONS        CLOUDY    48  42  80 SE6       29.98F
WICHITA INTL   MOCLDY    45  38  76 SE5       29.93S
WICHITA JABRA  CLOUDY    44  38  79 S7        29.93S
WINFIELD       CLOUDY    48  39  71 S5        29.95F
$$

KSZ007>012-019>026-033>040-048>060-102>105-190300-
NORTHEAST KANSAS

CITY           SKY/WX    TMP DP  RH WIND       PRES   REMARKS
CONCORDIA      CLEAR     43  36  76 S13       29.88F
EMPORIA        CLEAR     39  35  86 SE7       29.94F
LAWRENCE       CLEAR     37  36  96 E8        29.99S
MANHATTAN      PTCLDY    41  31  67 S3        29.92F
OLATHE IND     MOCLDY    40  37  89 E6        29.99F
OLATHE EXE     CLOUDY    40  39  97 SE5       29.99F
SALINA         CLEAR     46  41  82 S15       29.90F
TOPEKA BILLARD PTCLDY    40  35  83 SE7       29.96F
TOPEKA FORBES  CLEAR     40  34  79 SE7       29.95F
$$




USA.gov is the U.S. government's official web portal to all federal, state and local government web resources and services.